Prince Rupert Airport
CYPR : now visible

Airfield :











YOU CAN JOIN US ON...

 
LOGIN :

Register | Disclaimer

   EN    FR    IT 

 









Legend :    VFR   Marginal VFR   IFR   Intensive IFR   Very Intensive IFR
Visi :
Ceiling :
>= 8 km
>= 3000ft
5 to 8 km
1000 to 3000 ft
1500m to 5 km
500 to 1000 ft
800 to 1500m
200 to 500 ft
< 800m
< 200 ft
Symbols :   Thunderstorms  Fog  Heavy snow  Heavy precipitations  Wind > 20 kt






- Airport Elevation : 116 ft
- IATA code : YPR


CYPR - Prince Rupert

CURRENT METAR :
  • 030100Z AUTO 30007KT 230V320 9SM CLR 05/M05 A3016 RMK SLP215

EXPIRED METARs :
  • 030000Z AUTO 29007KT 250V330 9SM CLR 05/M05 A3016 RMK SLP216
  • 022300Z AUTO 29008KT 250V340 9SM CLR 05/M06 A3017 RMK SLP219

TAF TAF CYPR
Valid from the 03 at 01:00 until the 03 at 13:00 UTC


030038Z 0301/0313 30008KT P6SM SKC
BECMG 0304/0306 05006KT RMK FCST BASED ON AUTO OBS. NXT FCST BY 030700Z



MET'MAP, your aeronautical weather chart ! - Copyright ORBIFLY December 2007 - Disclaimer

ORBIFLY MET'MAP TEAM :

Programming & Development : Alexandra Zaïnal
Concept & original design : Baudouin d'Aumeries
Assistance for programming : Marc-Olivier Méhu
Technical & hardware support : Manuel Goepfert

Contact : metmap@orbifly.com




SOURCES & CREDITS :

   NOAA       Earth
Advisory